CAPE
4 0 0 0 0 0 0 0 2 26 205 321 257 425 476 517 593 639 590 612 655 749 799 635 864 1131 1850 1856 1679 1820 1915 1759 1481 1298 1390 1143 1024 952 886 855 815 789 833
4 6 1 1 0 0 0 0 0 0 0 2 3 19 8 15 47 115 114 89 27 185 277 333 319 439 837 1276 1624 1425 1438 1744 1708 1423 1338 1178 965 859 740 645 700 646 655
0 0 0 0 0 0 0 0 0 0 0 0 0 0 0 0 0 0 0 0 0 0 0 1 3 5 17 203 458 859 1278 1133 1170 1409 1374 1168 1000 815 722 582 573 591 559
0 0 0 0 0 0 0 0 0 0 0 0 0 0 0 0 0 0 0 0 1 0 1 0 1 4 4 3 16 187 556 947 1089 925 1112 1140 729 733 627 616 534 488 478
0 0 0 0 0 0 0 0 0 0 0 0 0 0 0 0 0 0 9 12 1 0 0 0 0 1 4 7 6 11 97 119 373 874 849 826 815 688 697 627 501 452 429
0 0 0 0 0 0 0 0 0 0 0 0 0 0 0 0 0 6 9 10 7 5 2 5 9 2 2 7 15 18 19 16 12 10 36 322 879 751 637 498 425 395 403
0 0 0 0 0 0 0 0 0 0 0 0 0 0 0 0 0 5 15 6 10 8 7 2 2 2 1 2 5 11 22 26 20 17 14 8 4 237 501 488 338 271 306
0 0 0 0 0 0 0 0 0 0 0 0 0 0 0 0 0 0 9 6 12 9 6 0 2 6 5 5 5 6 9 14 20 22 19 15 10 5 4 294 331 278 221
0 0 0 0 0 0 0 0 0 0 0 0 0 0 0 0 0 1 12 8 1 0 2 10 6 6 0 1 0 3 9 6 11 18 19 17 19 13 4 1 6 224 278
0 0 0 0 0 0 0 0 0 0 0 0 0 0 0 0 0 0 0 0 0 0 3 11 15 1 2 8 0 3 8 5 9 14 19 27 19 19 11 7 3 4 23
0 0 0 0 0 0 0 0 0 0 0 0 0 0 0 1 0 0 0 0 0 0 2 0 0 0 0 0 0 1 10 2 5 17 20 30 33 28 24 12 11 5 7
0 0 1 0 0 0 0 0 1 1 1 0 0 0 0 0 1 1 1 0 0 0 2 0 0 0 0 0 0 0 14 2 6 13 26 28 25 26 20 15 12 8 9
0 0 1 0 0 0 0 0 0 0 1 1 1 0 1 1 2 1 2 1 0 0 0 0 0 0 0 0 0 0 18 2 9 10 17 26 21 25 26 24 11 14 12
0 1 0 0 0 0 0 0 0 0 1 2 2 1 0 2 2 2 2 4 0 0 3 8 3 0 1 2 1 2 21 10 8 10 14 17 20 17 25 20 16 16 18
0 1 1 0 0 0 0 0 0 0 0 0 2 1 0 0 0 1 5 5 9 1 0 10 3 4 4 2 0 6 16 9 11 20 14 14 18 20 22 17 18 20 19
0 0 0 0 0 0 0 0 0 0 0 0 0 0 0 0 0 1 3 4 9 5 5 1 7 4 1 1 3 14 23 6 9 22 18 13 12 17 19 18 18 17 17
0 0 0 0 0 0 0 0 0 0 0 0 0 0 0 0 0 0 0 1 1 2 3 0 1 0 0 0 1 10 36 0 5 9 38 9 5 7 10 13 15 11 11
0 0 0 0 0 0 0 0 0 0 0 0 0 0 0 0 0 0 0 0 0 0 0 0 0 0 0 0 0 3 34 0 1 2 11 3 3 3 4 5 10 6 5
0 0 0 0 0 0 0 0 0 0 0 0 0 0 0 0 0 0 0 0 0 0 0 0 0 0 0 0 0 0 18 2 1 0 1 3 1 0 0 2 4 6 2
0 0 0 0 0 0 0 0 0 0 0 0 0 0 0 0 0 0 0 0 0 0 0 0 0 0 0 0 0 0 6 0 0 0 0 0 0 0 0 0 3 6 3
0 0 0 0 0 0 0 0 0 0 0 0 0 0 0 0 1 0 0 0 0 0 0 0 0 0 0 0 0 0 0 7 0 0 0 0 0 0 0 0 0 4 3
2 0 0 0 0 0 0 0 0 0 0 0 0 0 0 0 0 0 0 0 0 0 0 0 0 0 0 0 0 0 0 0 0 0 0 0 0 0 0 0 2 2 2
7 0 0 0 0 0 0 0 0 0 0 0 0 0 0 0 0 0 0 0 0 0 0 0 0 1 0 0 0 0 0 0 0 0 0 0 0 0 3 1 2 2 1
8 11 11 3 0 0 0 0 0 2 4 3 2 2 0 0 0 0 0 0 1 0 0 0 1 2 3 1 0 0 0 0 1 0 0 5 13 6 15 12 4 3 2
4 0 38 7 4 4 0 0 3 8 10 7 6 3 0 0 0 0 0 0 1 3 1 0 0 1 1 2 3 0 0 0 1 4 4 4 16 12 8 20 29 1 2
21 19 10 21 10 7 0 0 12 11 12 11 5 2 0 0 0 0 0 0 0 0 2 2 4 3 3 5 2 12 4 1 2 0 6 6 16 15 2 19 24 9 11
CIN
0 0 0 0 0 0 0 0 -90 -120 -45 -31 -46 -21 -15 -15 -21 -20 -10 -97 -110 -95 -58 -62 -59 -40 -1 -2 -9 -11 -11 -14 -25 -37 -28 -45 -38 -50 -42 -24 -78 -83 -56
0 0 0 0 0 0 0 0 0 0 0 -53 -48 -172 -52 -200 -152 -118 -111 -122 -91 -197 -114 -147 -134 -83 -34 -3 0 -4 -13 -13 -16 -29 -43 -41 -51 -61 -32 -30 -47 -49 -34
0 0 0 0 0 0 0 0 0 0 0 0 0 0 0 0 0 0 0 0 0 0 0 0 -4 -27 -308 -150 -59 -7 0 -3 -12 -20 -22 -39 -50 -57 -58 -55 -29 -69 -26
0 0 0 0 0 0 0 0 0 0 0 0 0 0 0 0 0 0 0 0 0 0 -1 0 0 0 0 0 -226 -150 -38 -3 0 -9 -15 -19 -54 -55 -52 -57 -52 -49 -68
0 0 0 0 0 0 0 0 0 0 0 0 0 0 0 0 0 0 0 -3 0 0 0 0 0 0 0 0 0 0 -65 -64 -60 -1 -1 -11 -22 -30 -31 -56 -59 -71 -63
0 0 0 0 0 0 0 0 0 0 0 0 0 0 0 0 0 0 -1 0 0 0 0 0 -1 0 0 0 0 0 0 0 0 0 -35 -87 -1 -6 -19 -51 -63 -82 -64
0 0 0 0 0 0 0 0 0 0 0 0 0 0 0 0 0 0 0 -7 -2 0 0 0 0 -1 0 0 0 0 0 0 0 0 0 0 -1 -101 -22 -22 -39 -51 -54
0 0 0 0 0 0 0 0 0 0 0 0 0 0 0 0 -1 0 0 -1 -1 0 0 0 0 0 0 0 0 0 0 0 0 0 0 0 0 0 -181 -32 -9 -18 -41
0 0 0 0 0 0 0 0 0 0 0 0 0 0 0 0 0 -1 -1 -9 -4 0 0 -1 -1 0 0 0 0 0 0 0 0 0 0 0 0 0 0 0 -123 -20 -6
0 0 0 0 0 0 0 0 0 0 0 0 0 0 0 0 0 0 0 0 0 0 0 -3 -12 0 0 0 0 0 0 0 0 0 0 0 0 0 0 0 0 0 -176
0 0 0 0 0 0 0 0 0 0 0 0 0 0 0 0 0 0 0 0 0 0 -1 0 0 0 0 0 0 0 0 0 0 0 0 0 0 0 0 0 0 0 0
0 0 0 0 0 0 0 0 0 0 0 0 0 0 0 0 0 0 0 0 0 0 -1 0 0 0 0 0 0 0 0 0 0 0 0 0 0 0 0 0 0 0 0
0 0 0 0 0 0 0 0 0 0 0 0 0 0 0 0 0 0 0 0 0 0 -2 0 0 0 0 0 0 0 0 0 -1 0 0 0 0 0 0 0 0 0 0
0 0 0 0 0 0 0 0 0 0 0 0 0 0 0 0 0 0 0 0 0 0 0 0 0 0 0 0 -2 0 0 0 0 0 0 0 0 0 0 0 0 0 0
0 0 0 0 0 0 0 0 0 0 0 0 0 0 0 0 0 0 0 0 0 0 0 0 0 0 0 0 -2 0 0 0 0 0 0 0 0 0 0 0 0 0 0
0 0 0 0 0 0 0 0 0 0 0 0 0 0 0 0 0 0 0 0 0 0 0 0 0 0 0 0 0 0 0 0 0 0 0 0 0 0 0 0 0 0 0
0 0 0 0 0 0 0 0 0 0 0 0 0 0 0 0 0 0 0 0 0 0 0 0 0 0 0 0 0 0 0 0 0 0 0 0 0 0 0 0 0 0 0
0 0 0 0 0 0 0 0 0 0 0 0 0 0 0 0 0 0 0 0 0 0 0 0 0 0 0 0 0 0 0 0 0 0 0 0 0 0 0 0 0 0 0
0 0 0 0 0 0 0 0 0 0 0 0 0 0 0 0 0 0 0 0 0 0 0 0 0 0 0 0 0 0 0 0 0 0 -15 0 0 0 0 0 0 0 0
0 0 0 0 0 0 0 0 0 0 0 0 0 0 0 0 0 0 0 0 0 0 0 0 0 0 0 0 0 0 0 0 0 0 0 0 0 0 0 0 0 0 0
0 0 0 0 0 0 0 0 0 0 0 0 0 0 0 0 0 0 0 0 0 0 0 0 0 0 0 0 0 0 0 0 0 0 0 0 0 0 0 0 0 0 0
0 0 0 0 0 0 0 0 0 0 0 0 0 0 0 0 0 0 0 0 0 0 0 0 0 0 0 0 0 0 0 0 0 0 0 0 0 0 0 0 0 0 0
0 0 0 0 0 0 0 0 0 0 0 0 0 0 0 0 0 0 0 0 0 0 0 0 0 0 0 0 0 0 0 0 0 0 0 0 0 0 0 0 0 0 0
-1 -2 -1 0 0 0 0 0 0 0 0 0 0 0 0 0 0 0 0 0 0 0 0 0 0 0 0 0 0 0 0 0 0 0 0 0 0 0 0 0 0 0 0
0 0 -1 -1 0 0 0 0 0 0 0 0 0 0 0 0 0 0 0 0 0 0 0 0 0 0 0 0 0 0 0 0 0 0 0 0 0 0 0 0 0 0 0
0 0 0 0 0 0 0 0 0 0 0 0 0 0 0 0 0 0 0 0 0 0 0 0 0 0 0 0 0 0 0 0 0 0 0 0 0 0 0 0 0 0 0
Wind_Speed
3 4 3 2 1 1 1 3 2 3 4 4 5 5 6 6 7 6 6 5 6 4 2 6 11 12 11 10 10 14 16 18 20 21 20 20 19 20 19 18 18 19 18
1 1 2 2 2 1 2 3 4 5 4 4 6 5 6 7 8 8 7 7 1 4 1 7 9 13 13 13 10 11 15 18 19 21 22 20 21 20 18 17 16 16 17
4 2 3 2 3 3 4 3 3 3 5 4 6 5 6 7 6 6 6 7 7 16 18 17 14 13 12 12 13 14 13 11 15 19 20 19 22 21 20 18 18 19 18
4 3 3 3 4 3 4 4 4 5 4 4 5 5 5 5 5 6 6 4 5 6 10 12 17 17 17 15 13 12 14 14 13 12 13 15 17 20 20 20 21 20 20
5 3 4 4 3 3 3 4 4 4 5 5 6 6 5 5 4 3 6 8 8 6 7 8 12 18 21 22 21 21 19 18 15 14 17 18 17 19 21 22 23 22 23
4 3 5 4 2 3 4 5 4 4 3 6 8 6 4 3 2 2 5 4 7 7 9 9 5 11 18 20 22 22 21 21 20 18 18 14 19 17 20 21 21 21 23
5 4 4 4 3 5 5 4 3 1 2 6 6 5 4 4 1 2 5 8 9 7 8 8 7 6 6 15 20 22 23 22 20 19 18 17 13 8 11 14 14 17 18
5 5 4 4 3 4 4 4 4 3 3 6 5 5 2 5 3 2 3 3 4 3 3 6 8 9 9 8 13 21 22 22 22 20 19 17 14 12 7 7 16 19 20
5 5 5 4 5 3 4 5 5 6 4 4 6 4 3 2 5 8 5 8 6 5 8 7 3 7 8 8 10 14 20 19 20 19 19 19 17 13 10 9 10 13 20
6 5 5 5 5 5 5 5 5 5 5 4 2 3 3 4 4 4 4 6 9 9 9 9 12 11 12 8 11 15 17 19 20 19 18 17 16 14 11 8 8 9 12
6 6 6 5 6 5 6 6 6 6 5 4 4 4 4 3 4 2 6 6 7 7 8 9 10 11 11 11 9 16 17 17 17 18 17 17 16 14 13 10 11 11 9
6 6 6 6 6 6 5 5 5 7 6 5 4 5 5 4 3 2 3 6 6 4 6 7 8 9 9 10 14 20 16 16 17 17 16 14 15 15 12 14 13 11 12
6 7 6 5 5 5 5 5 5 6 7 6 6 4 4 4 2 2 4 5 5 6 5 6 6 7 7 7 9 19 15 15 18 16 16 16 15 18 15 14 13 14 15
7 8 7 6 5 5 5 4 4 4 5 5 6 4 4 4 4 4 4 4 5 4 4 6 2 8 10 9 10 17 9 15 19 16 17 17 16 14 16 17 17 17 17
8 8 8 7 6 4 5 4 4 5 4 4 4 3 4 4 3 4 4 3 3 4 6 6 6 10 9 9 12 11 9 17 19 20 18 18 19 20 19 21 22 21 20
9 9 8 8 6 5 4 4 4 4 5 4 5 5 5 3 3 4 3 3 3 3 5 9 5 6 8 7 10 10 7 8 20 20 18 20 23 23 20 21 23 22 22
10 9 8 7 6 5 5 5 5 5 6 6 7 6 5 5 4 4 2 2 1 0 5 6 6 9 10 10 8 9 8 7 8 17 18 19 20 21 23 24 24 23 23
7 9 8 8 6 5 5 5 4 6 7 7 6 6 6 5 5 5 4 4 3 3 4 7 6 6 9 9 8 6 7 6 5 11 14 17 19 21 24 23 23 21 24
8 9 9 8 6 6 6 5 5 7 8 7 7 9 8 7 7 5 5 5 5 4 4 5 5 6 7 8 9 5 4 8 5 4 7 9 14 20 21 24 23 27 26
9 9 8 8 7 6 5 5 6 8 8 7 10 11 10 10 10 9 7 6 5 4 5 5 5 6 8 10 7 8 2 3 5 4 3 3 3 15 21 22 25 23 24
8 9 9 8 6 7 4 5 6 7 8 9 10 11 11 13 16 17 9 10 9 6 6 6 7 7 9 9 10 8 8 7 6 8 9 6 7 7 10 17 20 24 24
8 8 9 8 6 5 6 11 3 7 7 8 9 10 10 12 12 14 17 18 16 10 10 8 7 8 10 9 9 9 8 7 6 11 10 8 9 7 8 10 22 22 23
8 9 9 9 9 7 7 10 9 8 8 8 8 8 8 6 4 8 10 13 16 17 16 11 10 10 10 10 10 9 10 6 7 10 10 8 10 6 7 9 19 21 22
6 7 6 10 10 8 10 10 10 11 10 10 10 9 10 8 8 6 8 9 10 11 12 9 10 9 10 11 11 9 9 4 6 9 12 6 8 7 6 8 16 22 20
10 6 3 10 11 9 9 7 10 11 10 11 11 10 10 9 9 10 7 8 8 8 8 11 11 11 12 17 17 8 9 7 5 6 10 5 8 8 4 6 7 19 19
9 9 9 8 12 10 8 5 9 8 10 9 11 12 14 10 11 9 5 7 7 6 6 7 7 8 10 11 16 12 10 8 7 6 10 8 8 8 5 6 7 9 10
Wind_Direction
143 153 144 136 154 104 313 299 278 263 276 276 287 292 289 302 303 305 309 77 66 38 356 334 315 306 308 301 270 237 230 230 227 219 216 216 216 221 224 220 205 197 193
43 134 166 160 155 333 343 305 356 314 304 300 281 281 299 297 295 301 299 311 216 204 23 19 6 339 326 322 314 299 250 230 228 229 220 214 218 220 225 227 213 211 211
77 31 49 31 15 18 298 312 311 285 273 278 282 284 284 274 285 304 304 297 312 77 60 41 38 21 353 347 331 322 315 289 253 238 231 220 220 218 216 219 220 204 216
45 66 72 42 8 15 353 354 354 336 321 316 308 299 312 309 308 302 274 320 334 336 78 62 49 42 30 20 1 324 307 309 298 273 250 238 237 220 217 217 219 216 207
57 60 56 47 346 28 30 357 347 353 323 326 310 295 283 279 295 315 14 34 42 10 356 77 91 61 44 36 32 22 20 12 348 305 272 260 248 237 225 219 220 216 214
77 98 91 56 19 41 53 12 355 352 320 336 312 294 283 293 354 37 88 66 62 31 19 14 359 72 52 38 31 23 19 18 19 11 7 327 265 256 237 229 226 218 223
85 81 89 88 73 53 45 19 337 329 19 352 276 347 256 129 98 33 61 32 10 29 29 10 8 34 64 45 30 22 14 10 10 7 5 359 360 310 250 227 223 221 225
93 95 95 85 43 100 60 41 26 330 55 29 356 273 261 163 121 127 104 140 73 346 23 11 4 15 20 29 26 21 15 4 356 359 358 1 356 355 11 267 229 225 227
99 104 99 95 98 73 76 50 28 31 24 58 32 355 308 343 336 157 156 79 13 332 327 337 355 36 27 27 18 20 15 7 354 350 349 355 351 349 350 351 335 268 234
113 104 98 100 87 84 76 69 50 36 348 38 127 45 26 10 340 309 22 354 10 340 336 11 47 28 15 27 42 24 11 6 359 356 352 340 346 340 344 352 332 331 312
127 116 110 101 93 86 73 64 58 47 54 25 32 1 32 56 64 292 288 352 330 344 35 45 35 25 16 6 13 3 8 9 360 352 352 350 354 345 341 18 8 29 349
137 121 107 93 90 92 74 69 66 50 53 47 57 37 30 5 41 335 302 308 322 338 47 55 41 29 21 3 357 356 2 8 3 358 359 353 10 356 1 25 28 34 27
143 132 120 115 99 91 81 77 76 65 48 50 33 67 55 59 13 318 301 336 314 305 94 69 42 30 17 5 348 349 18 15 11 12 13 11 21 9 23 31 36 42 43
132 135 123 109 99 96 88 91 93 82 77 72 63 40 91 62 19 28 17 341 318 310 106 37 65 32 3 353 20 349 6 20 18 16 23 25 34 34 33 41 43 45 49
134 132 126 116 99 91 95 92 79 89 87 82 85 73 70 70 63 37 30 359 5 333 329 43 16 360 360 351 21 351 339 30 21 14 27 35 37 44 29 44 43 40 45
136 137 134 119 115 107 102 113 109 83 95 80 72 53 54 30 75 78 60 16 10 328 298 344 359 340 358 354 7 351 327 32 29 9 26 38 35 41 32 42 47 36 41
144 134 128 115 119 118 116 96 102 104 89 85 75 63 62 41 23 32 34 15 257 331 290 333 333 16 348 357 8 350 328 39 29 9 19 34 44 37 38 37 52 38 36
138 123 126 116 126 125 130 136 120 103 98 85 82 80 49 48 34 29 29 334 3 308 322 336 6 13 2 359 348 9 341 48 43 25 7 28 43 40 39 36 41 50 35
135 134 123 130 140 129 140 127 128 100 90 83 80 70 52 41 39 29 19 360 345 351 8 344 9 27 8 16 347 31 354 35 354 352 99 7 33 47 40 38 32 38 32
145 135 126 124 133 141 128 135 118 103 99 92 77 64 54 47 39 9 31 360 8 9 30 20 32 24 22 8 2 353 342 96 22 357 354 131 355 65 46 34 35 37 34
130 128 126 132 142 138 83 130 120 118 119 105 92 87 70 68 58 50 35 14 6 36 39 40 32 26 25 9 1 348 334 146 63 13 337 2 335 83 48 35 28 28 27
137 135 124 131 134 96 35 17 100 121 115 108 111 109 115 109 78 67 67 56 41 18 44 45 46 28 31 9 345 348 338 15 356 21 339 26 346 28 62 35 27 26 28
147 122 134 130 114 114 72 53 51 95 88 77 77 95 96 88 85 104 87 72 59 50 42 40 50 31 24 6 338 348 345 39 47 14 333 51 355 9 346 52 28 23 26
103 92 127 128 121 115 112 95 97 98 98 95 91 81 74 63 20 47 75 70 64 50 42 52 50 34 26 10 350 343 344 20 82 50 5 22 7 338 333 26 23 19 21
115 127 121 130 129 128 130 141 115 108 103 90 77 68 80 73 50 45 69 76 69 62 71 63 63 45 33 29 22 14 11 25 18 56 19 313 2 338 324 36 3 16 9
139 149 124 121 131 134 147 126 124 128 123 113 106 89 70 72 68 52 69 89 74 54 45 46 48 41 37 33 35 29 16 22 17 23 12 337 8 358 340 28 347 13 1